Home   Weather   Emmen   Past weeks

Flag for Netherlands Past Weather in Emmen, Netherlands — Yesterday and Last 2 Weeks

Now
72 °F

Mild.


Feels Like: 77 °F
Forecast: 55 / 68 °F
Wind: N/A

Location: Meppen

Current Time: Aug 16, 2017 at 4:56:30 pm

Latest Report: Aug 16, 2017 at 4:00 pm


Visibility: 9 mi

Pressure: 30.16 "Hg

Humidity: 48%

Dew Point: 51 °F

Location of EmmenLocation

Past Weather in Emmen — Graph

°F

Emmen Temperature Yesterday

Maximum temperature yesterday: 77 °F (at 3:00 pm)
Minimum temperature yesterday: 57 °F (at 7:00 am)
Average temperature yesterday: 66 °F

High & Low Weather Summary for the Past Weeks

 TemperatureHumidityPressure
High77 °F (Aug 15, 3:00 pm)97% (Aug 2, 3:00 am)30.22 "Hg (Aug 2, 3:00 am)
Low47 °F (Aug 7, 6:00 am)41% (Aug 7, 3:00 pm)29.74 "Hg (Aug 3, 1:00 pm)
Average63 °F76%30.01 "Hg
* Reported Aug 1 3:00 pm — Aug 16 3:00 pm, Emmen. Weather by CustomWeather, © 2017

Note: Actual official high and low records may vary slightly from our data, if they occured in-between our weather recording intervals... More about our weather records

Advertising

Emmen Weather History for the Previous 24 Hours

Scroll right to see more
 ConditionsComfort  
Time TempWeatherWind HumidityBarometerVisibility
3:00 pm
Wed, Aug 16
72 °FMild.1 mph48%30.17 "Hg8 mi
1:00 pm71 °FPartly sunny.1 mph54%30.18 "Hg22 mi
12:00 pm69 °FPassing clouds.3 mph66%30.19 "Hg11 mi
10:00 am63 °FScattered clouds.1 mph85%30.18 "Hg6 mi
9:00 am59 °FFog.N/A96%30.17 "Hg2 mi
7:00 am57 °FFog.1 mph95%30.14 "Hg0 mi
6:00 am56 °FCool.1 mph95%30.11 "Hg0 mi
4:00 am60 °FCool.1 mph95%30.09 "Hg2 mi
3:00 am61 °FCool.1 mph95%30.07 "Hg0 mi
1:00 am62 °FCool.N/A95%30.05 "Hg3 mi
12:00 am62 °FCool.1 mph95%30.03 "Hg3 mi
10:00 pm
Tue, Aug 15
62 °FCool.1 mph94%30.00 "Hg2 mi
9:00 pm62 °FCool.N/A93%29.98 "Hg6 mi
8:00 pmN/APassing clouds.2 mphN/AN/A3 mi
7:00 pm62 °FCool.1 mph89%29.97 "Hg4 mi
6:00 pm66 °FMild.2 mph85%29.95 "Hg6 mi
4:00 pm77 °FMild.N/A52%29.94 "Hg7 mi
Weather by CustomWeather, © 2017

See weather overviewHow to use our weather pages